Temp
-12 -12 -13 -13 -13 -13 -13 -14 -14 -14 -14 -14 -14 -14 -14 -14 -14 -14 -14 -14 -14 -14 -14 -14 -14 -14 -14 -13 -13 -13 -13 -13 -13 -13 -13 -12 -12 -12 -12 -12 -12 -12 -12 -12 -12 -12 -12 -12 -12 -12 -12 -12
-13 -13 -13 -13 -14 -14 -14 -14 -14 -14 -14 -14 -14 -14 -14 -14 -14 -14 -14 -14 -14 -14 -14 -14 -14 -14 -14 -14 -14 -14 -13 -13 -13 -13 -13 -13 -13 -13 -13 -12 -12 -12 -12 -12 -12 -12 -12 -12 -12 -12 -12 -12
-14 -14 -14 -14 -14 -14 -14 -14 -14 -14 -14 -14 -15 -15 -15 -15 -15 -15 -15 -15 -15 -14 -14 -14 -14 -14 -14 -14 -14 -14 -13 -13 -13 -13 -13 -13 -13 -13 -13 -13 -13 -13 -12 -12 -12 -12 -12 -12 -12 -12 -12 -12
-14 -14 -14 -14 -14 -14 -14 -14 -14 -14 -15 -15 -15 -15 -15 -15 -15 -15 -15 -15 -15 -15 -15 -14 -14 -14 -14 -14 -14 -14 -13 -13 -13 -13 -13 -13 -13 -13 -13 -13 -13 -13 -13 -13 -13 -13 -13 -13 -13 -13 -13 -13
-14 -14 -14 -14 -14 -14 -15 -15 -15 -15 -15 -15 -15 -15 -15 -15 -16 -15 -15 -15 -15 -15 -15 -15 -14 -14 -14 -14 -14 -14 -13 -13 -13 -13 -13 -13 -13 -13 -13 -13 -13 -13 -13 -13 -13 -13 -13 -13 -13 -13 -13 -13
-14 -14 -14 -14 -14 -15 -15 -15 -15 -15 -15 -15 -15 -16 -16 -16 -16 -16 -16 -15 -15 -15 -15 -15 -15 -14 -14 -14 -14 -14 -13 -13 -13 -13 -13 -13 -13 -13 -13 -13 -13 -13 -13 -13 -13 -13 -13 -13 -13 -13 -14 -14
-15 -15 -15 -15 -15 -15 -15 -15 -15 -15 -15 -15 -16 -16 -16 -16 -16 -16 -16 -15 -15 -15 -15 -15 -15 -15 -14 -14 -14 -14 -14 -13 -13 -13 -13 -13 -13 -13 -13 -13 -13 -13 -13 -13 -13 -13 -13 -14 -14 -14 -14 -14
-15 -15 -15 -15 -15 -15 -15 -15 -15 -16 -16 -16 -16 -16 -16 -16 -16 -16 -16 -15 -15 -15 -15 -15 -15 -15 -14 -14 -14 -14 -14 -14 -13 -13 -13 -13 -13 -13 -13 -13 -13 -13 -13 -14 -14 -14 -14 -14 -14 -14 -14 -14
-15 -15 -16 -16 -16 -16 -16 -16 -16 -16 -16 -16 -16 -16 -16 -16 -16 -16 -15 -15 -15 -15 -15 -15 -15 -14 -14 -14 -14 -14 -14 -14 -14 -14 -14 -14 -13 -13 -13 -13 -13 -14 -14 -14 -14 -14 -14 -14 -14 -14 -14 -14
-16 -16 -16 -16 -16 -16 -16 -16 -16 -16 -16 -16 -16 -16 -16 -16 -16 -16 -16 -15 -15 -15 -15 -15 -15 -14 -14 -14 -14 -14 -14 -14 -14 -14 -14 -14 -14 -14 -14 -14 -14 -14 -14 -14 -14 -14 -14 -14 -14 -14 -14 -14
-16 -16 -16 -16 -16 -16 -16 -16 -16 -16 -16 -16 -16 -16 -16 -16 -16 -16 -15 -15 -15 -15 -15 -15 -14 -14 -14 -14 -14 -14 -14 -14 -14 -14 -14 -14 -14 -14 -14 -14 -14 -14 -14 -14 -14 -14 -15 -15 -15 -15 -15 -15
-17 -16 -17 -17 -17 -17 -16 -16 -16 -16 -16 -16 -16 -16 -16 -16 -16 -15 -15 -15 -15 -15 -15 -15 -14 -14 -14 -14 -14 -14 -14 -14 -14 -14 -14 -14 -14 -14 -14 -14 -14 -14 -15 -15 -15 -15 -15 -15 -15 -15 -15 -15
-17 -17 -17 -17 -17 -17 -17 -17 -17 -16 -16 -16 -16 -16 -16 -16 -16 -16 -15 -15 -15 -15 -15 -15 -15 -15 -15 -14 -14 -14 -14 -14 -14 -14 -14 -14 -14 -14 -15 -15 -15 -15 -15 -15 -15 -15 -15 -15 -15 -15 -15 -15
-17 -17 -17 -17 -17 -17 -17 -17 -17 -17 -16 -16 -16 -16 -16 -16 -16 -16 -16 -15 -15 -15 -15 -15 -15 -15 -15 -15 -14 -14 -14 -14 -14 -15 -15 -15 -15 -15 -15 -15 -15 -15 -15 -15 -15 -15 -15 -15 -15 -15 -16 -16
-17 -17 -17 -17 -17 -17 -17 -17 -17 -17 -16 -16 -16 -16 -16 -16 -16 -16 -16 -15 -15 -15 -15 -15 -15 -15 -15 -15 -14 -14 -15 -15 -15 -15 -15 -15 -15 -15 -15 -15 -15 -15 -15 -15 -15 -15 -15 -16 -16 -16 -16 -16
-17 -17 -17 -17 -17 -17 -17 -17 -17 -17 -16 -16 -16 -16 -16 -16 -16 -16 -16 -15 -15 -15 -15 -15 -15 -15 -15 -15 -15 -15 -15 -15 -15 -15 -15 -15 -15 -15 -15 -15 -15 -16 -16 -16 -16 -16 -16 -16 -16 -16 -16 -16
-17 -17 -17 -17 -17 -17 -17 -17 -16 -16 -16 -16 -16 -16 -16 -16 -16 -16 -15 -15 -15 -15 -15 -15 -15 -15 -15 -15 -15 -15 -15 -15 -15 -15 -15 -15 -15 -16 -16 -16 -16 -16 -16 -16 -16 -16 -16 -16 -16 -16 -16 -16
-17 -17 -17 -17 -17 -17 -17 -17 -16 -16 -16 -16 -16 -16 -16 -16 -16 -15 -15 -15 -15 -15 -15 -15 -15 -15 -15 -15 -15 -15 -15 -15 -15 -15 -16 -16 -16 -16 -16 -16 -16 -16 -16 -16 -16 -16 -16 -16 -17 -17 -17 -17
-17 -17 -17 -17 -17 -17 -17 -17 -16 -16 -16 -16 -16 -16 -16 -16 -16 -16 -15 -15 -15 -15 -15 -15 -15 -15 -15 -15 -15 -15 -16 -16 -16 -16 -16 -16 -16 -16 -16 -16 -16 -16 -17 -17 -17 -17 -17 -17 -17 -17 -17 -17
-17 -17 -17 -17 -17 -17 -17 -16 -16 -16 -16 -16 -16 -16 -16 -16 -16 -16 -16 -15 -15 -15 -15 -15 -15 -16 -16 -16 -16 -16 -16 -16 -16 -16 -16 -17 -17 -17 -17 -17 -17 -17 -17 -17 -17 -17 -17 -17 -17 -17 -17 -17
-17 -17 -17 -17 -17 -17 -17 -17 -16 -16 -16 -16 -16 -16 -16 -16 -16 -16 -16 -16 -16 -16 -16 -16 -16 -16 -16 -16 -16 -16 -17 -17 -17 -17 -17 -17 -17 -17 -17 -17 -17 -17 -17 -17 -17 -17 -17 -17 -18 -18 -18 -18
-17 -17 -17 -17 -17 -17 -17 -17 -17 -17 -17 -17 -16 -16 -16 -16 -16 -16 -16 -16 -16 -16 -16 -16 -16 -17 -17 -17 -17 -17 -17 -17 -17 -17 -17 -17 -18 -18 -18 -18 -18 -18 -18 -18 -18 -18 -18 -18 -18 -18 -18 -18
-17 -17 -17 -17 -17 -17 -17 -17 -17 -17 -17 -17 -17 -17 -17 -17 -17 -17 -17 -17 -17 -17 -17 -17 -17 -17 -17 -17 -17 -17 -18 -18 -18 -18 -18 -18 -18 -18 -18 -18 -18 -18 -18 -18 -18 -18 -18 -18 -18 -18 -18 -18
-17 -17 -17 -17 -17 -17 -17 -17 -17 -17 -17 -17 -17 -17 -17 -17 -17 -17 -17 -17 -17 -17 -17 -18 -18 -18 -18 -18 -18 -18 -18 -18 -18 -18 -19 -19 -19 -19 -19 -19 -19 -19 -19 -19 -19 -19 -19 -19 -19 -19 -19 -19
-17 -17 -17 -17 -17 -17 -17 -17 -17 -17 -17 -17 -17 -17 -17 -18 -18 -18 -18 -18 -18 -18 -18 -18 -18 -18 -18 -18 -18 -19 -19 -19 -19 -19 -19 -19 -19 -19 -19 -19 -19 -19 -19 -19 -19 -19 -19 -19 -19 -19 -19 -19
-18 -17 -17 -17 -17 -18 -18 -18 -18 -18 -18 -18 -18 -18 -18 -18 -18 -19 -19 -19 -19 -19 -19 -19 -19 -19 -19 -19 -19 -19 -19 -20 -20 -20 -20 -20 -20 -20 -20 -20 -20 -20 -20 -20 -20 -20 -20 -20 -20 -20 -20 -20
-18 -18 -18 -18 -18 -18 -18 -18 -18 -18 -18 -18 -18 -18 -19 -19 -19 -19 -19 -19 -19 -19 -19 -19 -20 -20 -20 -20 -20 -20 -20 -20 -20 -20 -20 -20 -20 -20 -20 -20 -20 -20 -20 -20 -20 -20 -20 -20 -20 -20 -20 -20
-18 -18 -18 -18 -18 -18 -18 -19 -19 -19 -19 -19 -19 -19 -19 -19 -19 -20 -20 -20 -20 -20 -20 -20 -20 -20 -20 -20 -20 -21 -21 -21 -21 -21 -21 -21 -21 -21 -21 -21 -21 -21 -21 -21 -21 -21 -21 -21 -21 -21 -20 -20
-19 -19 -19 -19 -19 -19 -19 -19 -19 -19 -19 -19 -19 -19 -19 -19 -20 -20 -20 -20 -20 -21 -21 -21 -21 -21 -21 -21 -21 -21 -21 -21 -21 -22 -22 -22 -22 -22 -22 -22 -22 -22 -22 -22 -21 -21 -21 -21 -21 -21 -21 -21
-19 -19 -19 -19 -19 -20 -20 -20 -20 -20 -20 -20 -20 -20 -20 -20 -20 -20 -20 -20 -21 -21 -21 -21 -21 -21 -21 -21 -21 -21 -22 -22 -22 -22 -22 -22 -22 -22 -22 -22 -22 -22 -22 -22 -22 -22 -22 -22 -21 -21 -21 -21
-20 -20 -20 -20 -20 -20 -20 -20 -20 -20 -20 -20 -20 -20 -20 -20 -20 -20 -20 -21 -21 -21 -21 -21 -21 -22 -22 -22 -22 -22 -22 -22 -22 -23 -23 -23 -23 -23 -23 -23 -23 -23 -23 -23 -23 -22 -22 -22 -22 -22 -22 -22
Height
5757 5756 5754 5752 5751 5750 5748 5747 5746 5744 5744 5743 5742 5742 5742 5741 5741 5741 5741 5741 5741 5741 5740 5740 5740 5740 5740 5740 5739 5739 5739 5738 5738 5738 5738 5738 5738 5738 5738 5739 5739 5738 5737 5736 5736 5737 5739 5741 5741 5741 5742 5742
5751 5750 5749 5747 5746 5744 5743 5742 5741 5740 5738 5738 5737 5736 5736 5736 5736 5735 5735 5736 5736 5736 5735 5735 5735 5735 5735 5735 5734 5734 5734 5733 5733 5732 5732 5732 5732 5732 5733 5733 5733 5732 5732 5731 5730 5729 5731 5732 5733 5734 5734 5734
5747 5745 5744 5742 5741 5740 5738 5737 5736 5735 5734 5733 5732 5731 5731 5731 5731 5730 5730 5730 5731 5731 5731 5731 5730 5730 5729 5730 5729 5729 5729 5728 5728 5727 5727 5727 5726 5726 5727 5727 5727 5726 5726 5726 5725 5723 5723 5723 5724 5725 5726 5727
5743 5741 5739 5738 5736 5735 5733 5732 5731 5730 5729 5728 5727 5727 5726 5726 5726 5726 5726 5726 5726 5726 5726 5726 5725 5724 5724 5724 5724 5723 5723 5723 5722 5722 5721 5721 5721 5721 5721 5720 5720 5720 5720 5719 5719 5718 5718 5717 5716 5716 5717 5718
5737 5736 5734 5733 5731 5730 5729 5727 5726 5725 5724 5723 5723 5722 5722 5721 5721 5721 5721 5721 5721 5721 5721 5721 5720 5719 5719 5718 5718 5717 5717 5717 5716 5716 5715 5715 5715 5715 5715 5714 5714 5714 5713 5713 5712 5712 5712 5711 5711 5710 5709 5709
5732 5730 5729 5727 5726 5725 5723 5722 5721 5720 5719 5718 5718 5717 5717 5717 5717 5717 5716 5716 5716 5716 5716 5715 5715 5714 5713 5712 5712 5712 5711 5711 5711 5710 5709 5709 5709 5709 5709 5708 5708 5707 5707 5706 5706 5705 5705 5705 5705 5704 5703 5701
5726 5725 5723 5722 5721 5719 5718 5717 5716 5715 5714 5713 5713 5712 5712 5712 5712 5712 5711 5711 5711 5710 5710 5710 5709 5709 5708 5707 5706 5706 5705 5705 5704 5704 5704 5703 5703 5702 5702 5702 5701 5701 5700 5700 5699 5698 5697 5697 5697 5697 5697 5696
5721 5719 5718 5717 5715 5714 5713 5712 5711 5710 5709 5708 5708 5707 5707 5706 5706 5706 5706 5705 5705 5704 5704 5703 5703 5703 5702 5701 5701 5700 5699 5698 5698 5698 5697 5697 5696 5696 5695 5695 5695 5694 5694 5693 5692 5691 5690 5689 5689 5689 5689 5689
5716 5714 5713 5711 5710 5708 5707 5706 5705 5705 5704 5703 5702 5702 5701 5701 5700 5700 5700 5699 5699 5698 5698 5697 5697 5697 5696 5696 5695 5694 5693 5692 5692 5691 5691 5690 5690 5689 5689 5688 5688 5687 5687 5686 5685 5684 5683 5682 5681 5681 5681 5681
5710 5709 5708 5706 5704 5703 5702 5701 5700 5700 5699 5698 5697 5697 5696 5695 5695 5694 5694 5693 5693 5692 5691 5691 5690 5690 5690 5689 5688 5687 5687 5686 5685 5685 5684 5684 5683 5682 5682 5681 5681 5680 5680 5679 5678 5677 5676 5674 5673 5673 5672 5672
5705 5704 5703 5701 5700 5698 5697 5696 5695 5694 5694 5693 5692 5691 5691 5690 5689 5688 5688 5687 5686 5686 5685 5685 5684 5684 5683 5682 5681 5680 5680 5679 5679 5678 5677 5677 5676 5675 5675 5674 5673 5673 5672 5671 5670 5669 5668 5667 5665 5664 5664 5663
5701 5699 5698 5697 5695 5694 5693 5691 5690 5689 5688 5688 5687 5686 5685 5684 5683 5683 5682 5681 5681 5680 5679 5679 5678 5677 5676 5675 5674 5674 5673 5672 5672 5671 5670 5669 5669 5668 5667 5667 5666 5665 5665 5664 5662 5661 5661 5660 5657 5655 5654 5654
5697 5695 5693 5692 5691 5689 5688 5687 5686 5684 5683 5682 5681 5680 5680 5679 5678 5677 5676 5676 5675 5674 5673 5672 5671 5670 5670 5669 5667 5667 5666 5665 5664 5663 5662 5662 5661 5660 5659 5658 5658 5657 5656 5655 5654 5653 5652 5651 5650 5647 5645 5644
5692 5691 5689 5688 5686 5685 5683 5682 5681 5679 5678 5677 5676 5675 5674 5674 5673 5672 5671 5670 5669 5667 5666 5665 5664 5663 5662 5661 5660 5659 5658 5657 5656 5655 5654 5653 5652 5651 5651 5650 5649 5648 5647 5646 5645 5644 5643 5642 5641 5640 5637 5634
5688 5686 5685 5683 5682 5680 5679 5678 5676 5674 5673 5672 5671 5670 5669 5668 5667 5666 5664 5663 5662 5661 5660 5658 5657 5656 5655 5654 5653 5652 5651 5649 5648 5646 5645 5644 5643 5642 5641 5640 5639 5638 5638 5637 5635 5634 5633 5632 5631 5630 5628 5626
5683 5681 5680 5678 5677 5676 5674 5673 5671 5670 5668 5667 5666 5664 5663 5661 5660 5659 5658 5657 5655 5654 5653 5651 5650 5649 5648 5647 5645 5644 5642 5641 5639 5638 5636 5635 5634 5633 5632 5631 5629 5628 5628 5627 5625 5624 5623 5622 5621 5620 5619 5617
5678 5676 5675 5673 5671 5670 5669 5667 5666 5664 5663 5661 5660 5658 5657 5655 5654 5652 5651 5650 5649 5647 5645 5644 5643 5642 5640 5639 5637 5635 5633 5632 5630 5628 5627 5625 5624 5623 5622 5621 5619 5618 5617 5616 5615 5614 5613 5612 5610 5609 5608 5607
5673 5671 5670 5668 5666 5665 5663 5662 5660 5659 5657 5655 5654 5652 5650 5649 5647 5645 5644 5643 5641 5640 5638 5636 5635 5633 5631 5630 5628 5626 5624 5622 5620 5619 5617 5615 5613 5612 5611 5610 5609 5608 5607 5606 5605 5603 5602 5601 5600 5598 5597 5596
5668 5666 5664 5663 5662 5660 5658 5657 5655 5653 5651 5649 5647 5645 5644 5642 5640 5638 5636 5635 5634 5632 5629 5627 5626 5624 5622 5620 5618 5616 5614 5612 5610 5608 5607 5605 5603 5602 5600 5599 5598 5597 5596 5595 5594 5593 5591 5590 5589 5588 5586 5586
5662 5660 5658 5657 5655 5654 5652 5650 5648 5646 5645 5643 5641 5638 5636 5634 5632 5630 5628 5626 5625 5623 5621 5618 5616 5614 5612 5610 5608 5605 5603 5601 5599 5598 5596 5594 5592 5591 5590 5589 5587 5586 5585 5584 5583 5582 5580 5580 5578 5577 5576 5575
5657 5655 5653 5650 5648 5648 5646 5644 5642 5640 5638 5635 5633 5631 5628 5626 5623 5621 5619 5617 5616 5615 5612 5609 5606 5604 5601 5599 5597 5595 5593 5590 5589 5587 5586 5584 5581 5580 5579 5578 5576 5575 5574 5573 5572 5571 5569 5568 5567 5566 5565 5564
5652 5650 5648 5645 5642 5641 5639 5638 5635 5633 5631 5628 5626 5623 5620 5617 5615 5612 5610 5607 5606 5605 5602 5599 5596 5594 5591 5589 5587 5584 5582 5580 5578 5576 5575 5573 5571 5569 5568 5567 5565 5564 5563 5562 5561 5559 5558 5557 5556 5555 5554 5553
5645 5643 5641 5639 5637 5634 5632 5630 5628 5626 5623 5620 5618 5615 5612 5609 5606 5603 5600 5598 5596 5594 5591 5589 5586 5583 5581 5578 5576 5574 5571 5569 5567 5565 5564 5562 5560 5558 5557 5556 5554 5553 5552 5551 5549 5548 5547 5545 5544 5544 5543 5542
5639 5637 5635 5632 5630 5627 5624 5622 5620 5618 5615 5612 5609 5606 5603 5600 5597 5593 5590 5587 5585 5583 5581 5578 5575 5573 5571 5568 5566 5564 5561 5558 5556 5554 5552 5551 5549 5547 5546 5544 5543 5542 5541 5540 5538 5537 5536 5534 5533 5532 5532 5531
5633 5630 5628 5625 5622 5620 5617 5614 5611 5609 5606 5603 5600 5597 5594 5590 5587 5584 5580 5577 5574 5572 5570 5567 5564 5562 5560 5558 5555 5553 5551 5548 5545 5543 5541 5540 5538 5537 5535 5533 5531 5530 5530 5529 5527 5526 5525 5523 5522 5521 5521 5520
5625 5622 5619 5617 5615 5612 5609 5606 5603 5600 5597 5594 5592 5588 5585 5581 5578 5575 5571 5567 5564 5562 5559 5556 5554 5551 5549 5547 5544 5542 5540 5537 5534 5532 5530 5529 5527 5525 5524 5523 5520 5519 5519 5518 5516 5515 5514 5512 5510 5510 5511 5510
5618 5615 5612 5609 5606 5603 5601 5597 5593 5590 5587 5584 5583 5580 5577 5573 5569 5566 5562 5558 5554 5551 5549 5546 5543 5541 5538 5536 5533 5531 5529 5526 5524 5521 5519 5517 5516 5514 5513 5512 5509 5508 5508 5506 5505 5504 5504 5502 5500 5498 5499 5500
5610 5607 5604 5600 5597 5593 5590 5587 5582 5579 5576 5572 5571 5570 5567 5564 5561 5557 5553 5549 5545 5541 5538 5535 5532 5529 5527 5525 5522 5519 5517 5515 5512 5509 5508 5506 5504 5503 5502 5500 5499 5497 5497 5495 5493 5494 5493 5492 5491 5489 5488 5488
5601 5598 5595 5591 5588 5584 5581 5577 5573 5570 5567 5563 5560 5558 5556 5553 5550 5547 5543 5539 5535 5531 5527 5524 5520 5517 5515 5513 5511 5508 5506 5504 5501 5498 5496 5494 5492 5491 5490 5489 5488 5486 5485 5485 5483 5482 5482 5481 5481 5479 5478 5477
5592 5588 5585 5582 5578 5574 5571 5568 5565 5561 5559 5555 5551 5548 5546 5543 5540 5536 5532 5528 5524 5520 5515 5512 5508 5505 5502 5500 5498 5496 5493 5492 5489 5486 5484 5482 5481 5480 5478 5477 5477 5475 5474 5474 5473 5471 5471 5470 5470 5469 5468 5467
5584 5580 5576 5572 5569 5565 5562 5559 5556 5551 5548 5544 5541 5538 5535 5533 5530 5526 5522 5517 5513 5509 5504 5499 5496 5492 5488 5486 5484 5482 5480 5479 5477 5474 5471 5470 5469 5468 5467 5466 5466 5464 5462 5463 5464 5461 5460 5459 5459 5459 5458 5457
Wind_Speed
55 54 53 51 50 49 48 47 47 47 46 46 46 46 46 46 46 46 46 46 45 45 45 44 45 45 45 45 45 45 45 46 46 47 47 47 47 47 47 48 49 51 52 54 54 54 54 54 56 57 58 58
52 51 50 49 48 47 47 46 45 45 45 45 46 46 45 45 45 45 45 45 45 45 45 45 45 45 45 45 45 45 45 46 46 47 47 47 46 46 47 48 50 51 52 53 54 55 55 55 56 57 59 60
49 48 47 47 47 47 46 46 45 44 45 45 45 45 45 45 45 45 45 45 45 45 45 45 46 46 46 46 46 46 46 46 47 47 47 46 46 46 47 48 49 51 52 52 53 54 56 56 57 58 59 60
48 47 47 46 47 47 46 46 45 45 44 44 44 45 45 45 44 44 44 44 45 45 45 45 46 46 47 47 47 48 48 48 47 47 47 46 46 47 48 50 51 51 52 53 53 53 54 56 57 59 59 60
48 48 48 48 47 47 46 45 45 45 44 44 44 44 44 44 44 44 44 44 45 45 45 46 46 47 47 48 48 49 49 49 48 48 47 47 48 49 50 51 52 53 53 53 53 53 53 54 56 57 59 60
49 49 49 49 48 47 46 45 45 44 44 44 44 44 44 44 44 44 45 45 45 46 46 47 47 47 48 48 49 50 50 50 49 48 48 49 50 51 52 52 53 53 53 54 54 54 54 55 55 56 58 60
49 49 49 48 47 46 45 45 44 44 44 44 44 44 44 45 45 45 46 46 47 47 48 48 48 48 48 49 50 50 51 50 49 49 50 51 52 53 53 53 53 54 54 54 55 55 56 56 57 57 58 60
49 48 47 46 45 44 44 44 43 43 43 43 43 43 44 45 46 46 46 47 47 47 48 48 48 48 48 49 51 51 51 50 50 50 52 53 53 53 54 54 54 55 55 56 56 57 57 58 58 59 59 60
47 45 44 43 43 42 42 41 41 41 41 41 42 42 43 44 45 45 46 46 46 46 46 47 47 48 49 50 51 51 51 50 51 52 53 54 54 54 55 55 56 56 56 57 58 58 59 59 60 60 61 61
45 43 41 41 40 40 39 39 38 38 38 39 39 40 41 42 43 44 44 44 44 45 45 46 48 49 50 51 51 51 51 51 52 53 54 55 55 56 56 56 57 57 57 58 59 60 60 61 62 62 62 63
42 41 39 38 38 38 37 37 37 36 37 37 37 38 39 40 41 41 42 43 43 44 46 48 49 50 51 51 52 52 52 53 54 54 55 56 57 58 58 58 58 59 59 59 60 61 61 62 63 64 64 64
39 38 37 36 36 36 36 36 36 36 36 36 37 37 38 39 40 41 42 43 44 46 48 49 50 51 51 52 53 53 54 55 56 57 57 58 59 60 60 60 60 61 61 61 61 62 63 63 64 65 66 66
36 36 36 35 36 36 37 37 37 38 38 38 38 39 40 41 42 43 44 45 47 48 50 51 51 52 52 53 54 55 56 57 58 59 60 61 62 62 63 63 63 63 63 63 63 63 64 64 65 66 67 68
35 36 36 36 37 38 38 39 39 40 40 41 42 42 43 44 45 46 47 48 49 50 52 52 53 53 54 55 56 58 59 60 61 62 63 64 65 65 65 66 66 65 65 65 65 65 66 66 66 67 68 69
36 37 37 37 38 39 39 40 41 42 43 43 44 45 46 47 47 48 50 51 51 52 53 54 55 56 57 58 59 61 62 63 64 65 66 67 67 68 68 68 68 68 68 68 68 67 67 68 68 68 68 70
38 38 39 39 39 39 40 40 41 42 44 44 45 46 47 49 49 50 52 53 53 55 56 57 57 58 60 61 62 64 65 66 67 68 69 69 70 70 70 70 71 70 70 70 70 70 69 69 70 69 69 70
39 39 39 40 40 41 41 41 42 43 44 45 46 47 48 50 51 52 53 54 55 57 58 59 60 62 63 64 65 67 68 69 70 70 71 72 72 72 72 72 73 73 72 72 72 72 71 71 71 71 70 70
40 40 40 41 41 42 42 43 43 44 46 47 48 49 50 51 52 53 55 56 57 58 60 62 63 64 66 67 68 69 70 71 72 72 73 73 74 74 74 74 74 74 74 74 74 74 73 72 72 72 72 71
41 42 42 42 42 43 44 45 46 47 48 49 50 51 53 54 55 56 57 58 59 61 63 64 65 67 68 69 70 71 72 73 74 74 74 75 75 75 75 75 76 76 76 76 75 75 74 74 73 73 73 72
43 43 44 44 45 45 46 47 49 50 51 52 54 55 56 58 59 60 61 62 62 63 65 67 68 70 71 72 73 73 74 74 75 75 75 76 76 76 76 77 76 77 77 76 76 76 75 74 74 74 73 72
44 45 46 47 48 48 49 50 52 53 55 56 57 59 60 62 63 64 65 66 66 66 68 70 71 72 73 74 75 75 75 76 76 76 76 76 77 77 77 77 77 77 77 77 76 76 76 75 74 74 73 73
47 47 48 49 51 52 53 54 55 57 58 59 60 61 63 64 66 67 68 69 69 69 71 72 73 73 74 75 76 76 76 77 77 77 77 77 77 78 77 77 77 77 77 77 77 76 76 75 74 74 73 72
50 51 52 53 54 56 57 58 59 60 61 62 63 64 65 66 68 69 71 72 72 72 72 73 74 75 75 76 77 77 77 77 78 78 78 78 78 78 78 78 78 77 77 77 76 76 75 75 74 74 73 72
53 54 55 56 58 59 61 62 63 63 64 65 66 66 67 69 70 71 72 73 74 74 73 74 75 75 76 76 77 77 77 78 78 78 78 78 78 78 78 78 78 78 77 77 76 75 75 74 74 73 72 72
56 57 58 59 61 62 64 65 66 67 67 68 68 69 70 70 71 71 73 74 74 74 74 75 75 76 77 77 77 78 78 78 79 79 79 79 79 78 78 78 78 78 77 76 75 75 74 73 73 72 72 71
59 60 61 63 64 65 66 68 68 69 69 69 69 70 70 71 71 71 72 74 75 75 75 76 77 77 78 78 78 79 79 79 79 80 79 79 79 78 78 78 78 77 76 75 74 74 73 72 72 72 71 69
61 63 64 66 67 68 68 69 70 70 71 71 70 70 70 70 71 72 73 74 75 76 77 77 78 78 79 79 80 80 80 80 80 80 80 80 79 78 78 77 77 77 75 74 74 73 72 71 71 71 70 68
64 65 67 68 69 70 70 70 71 72 72 73 73 72 71 71 72 73 74 75 76 78 78 79 80 80 81 81 82 82 82 82 82 82 81 80 80 79 78 77 76 75 74 73 73 72 70 70 69 68 68 67
67 68 69 70 70 71 71 71 72 72 73 74 74 74 74 74 74 75 76 77 78 80 81 82 83 84 83 84 84 84 84 84 84 83 82 81 80 79 77 76 75 74 73 71 71 70 69 68 67 67 66 65
69 70 71 71 71 72 72 72 73 73 74 75 75 76 76 76 76 77 78 79 80 81 83 84 85 86 87 87 87 87 87 86 85 84 83 82 80 78 77 75 73 72 71 70 69 68 68 67 66 65 64 64
70 70 71 72 72 73 74 74 75 76 76 77 77 77 77 77 76 77 78 79 80 81 83 84 86 87 88 89 89 90 90 89 87 85 84 82 79 77 75 74 72 70 70 68 67 66 66 65 64 63 63 63
Wind_Direction
292 291 290 288 287 286 285 285 284 283 282 280 279 277 276 275 274 273 272 272 272 273 273 273 274 274 274 274 275 275 276 277 278 278 278 278 278 278 278 279 280 281 282 283 283 284 284 284 283 282 281 280
292 291 289 288 287 286 285 285 284 283 281 280 278 277 275 274 273 272 272 272 272 272 272 273 273 273 273 274 275 275 276 277 278 278 278 278 278 278 279 279 280 281 282 283 285 286 287 287 286 285 283 282
290 289 288 288 287 286 286 285 283 282 280 278 277 275 274 272 271 271 271 271 272 272 272 272 273 273 274 274 274 275 276 276 277 277 277 277 278 278 279 280 281 282 282 283 285 287 289 290 289 288 286 284
289 288 288 287 287 286 285 284 283 281 278 276 274 273 272 271 270 270 270 270 271 272 272 272 273 274 274 274 274 274 275 276 277 277 277 277 277 278 279 281 281 282 283 283 285 287 289 290 291 290 289 287
289 288 288 287 287 286 285 284 282 280 277 275 273 271 270 270 269 269 270 270 271 271 272 272 273 274 274 274 274 275 276 277 277 277 277 277 278 279 280 281 282 282 283 283 284 286 287 289 290 291 291 290
290 289 289 288 287 286 285 283 281 279 277 274 272 271 270 269 269 269 270 270 271 271 271 271 272 272 273 274 274 276 277 277 276 276 277 277 278 279 280 281 281 282 282 283 283 285 286 287 288 289 290 291
291 290 290 289 288 287 285 283 281 279 276 274 272 271 270 269 269 269 269 270 270 270 270 270 270 271 272 273 274 276 277 277 276 276 276 277 278 279 280 280 280 281 281 282 283 284 285 286 287 288 289 290
291 291 290 289 288 287 285 283 281 279 277 275 273 272 271 270 270 269 269 270 270 271 271 270 269 270 271 272 274 276 277 277 277 277 277 278 278 279 279 280 280 281 281 282 282 283 284 285 286 287 288 289
292 292 291 290 289 288 286 284 283 281 279 277 275 274 273 272 272 272 272 272 272 272 271 270 270 270 271 273 276 277 278 277 277 277 278 278 278 279 279 279 280 280 281 281 282 283 283 284 284 286 287 288
293 292 292 291 290 289 288 287 286 284 283 281 279 278 276 276 275 275 275 274 274 273 272 272 272 273 274 276 278 278 278 278 277 277 277 278 278 278 278 279 279 279 280 280 281 282 282 283 283 284 285 287
294 294 294 293 293 292 292 291 290 288 287 285 283 282 280 279 278 277 277 276 275 275 274 275 275 276 277 278 279 279 278 278 278 277 277 278 277 278 278 278 278 279 279 280 280 281 281 282 282 283 284 286
296 297 297 297 296 296 296 295 294 292 291 289 287 286 284 283 282 280 280 279 278 278 277 277 278 278 279 279 279 279 279 278 278 278 278 277 277 277 277 277 278 278 279 279 280 280 281 281 281 282 283 285
299 300 300 300 300 299 299 298 297 296 294 293 291 290 288 287 286 284 283 282 282 281 281 281 281 281 281 281 280 280 280 279 279 278 278 277 277 277 277 277 278 278 278 279 279 280 280 280 281 281 283 284
300 300 300 300 300 299 299 298 297 296 296 295 294 292 291 290 289 287 286 286 285 284 283 283 282 282 282 282 281 280 280 280 279 279 279 278 278 277 277 277 278 278 279 279 279 280 280 280 280 281 282 284
300 299 299 298 298 298 297 297 297 296 296 295 294 293 292 291 290 289 288 288 287 286 285 284 284 283 282 282 281 281 280 280 280 279 279 279 278 278 278 278 278 279 279 279 279 280 280 280 280 280 281 283
298 298 298 297 297 297 297 297 296 296 295 295 294 294 293 292 291 290 290 289 288 287 286 285 284 284 283 282 281 281 281 280 280 280 279 279 279 279 278 278 279 279 279 279 280 280 280 280 281 281 281 283
296 296 297 297 298 298 298 297 297 296 296 295 295 295 294 294 293 292 291 290 289 288 287 286 285 285 284 283 283 282 281 281 280 280 280 279 279 279 279 279 279 279 279 280 280 280 280 280 281 281 281 282
296 296 296 297 297 298 298 298 297 296 296 296 296 296 295 294 294 293 292 291 290 289 288 288 287 286 285 284 283 282 282 281 281 280 280 280 279 279 279 279 279 279 280 280 280 280 280 281 281 281 281 282
297 297 297 297 297 297 297 297 297 296 296 296 296 295 295 294 294 293 292 291 291 290 289 288 287 286 285 284 284 283 282 281 281 280 280 280 280 280 280 280 280 280 280 280 280 281 281 281 281 281 282 282
297 298 298 298 297 297 297 297 297 297 297 297 296 295 295 294 293 293 292 291 290 290 289 288 287 286 285 284 284 283 282 282 281 281 280 280 280 280 280 280 280 280 280 280 280 281 281 281 281 281 282 282
295 296 296 297 297 297 296 296 296 296 297 296 296 295 295 294 293 293 292 291 290 290 289 287 286 285 285 284 284 283 282 282 281 281 281 280 280 280 280 280 280 280 280 280 280 281 281 281 281 281 282 282
294 294 294 295 295 296 296 295 295 295 295 295 294 294 294 293 293 292 292 291 291 290 289 288 286 285 285 284 284 283 282 282 282 281 281 281 280 280 280 281 281 281 281 281 281 281 281 281 281 281 282 282
294 294 294 295 295 295 296 295 295 295 294 294 294 294 294 293 293 293 293 292 292 291 289 288 287 285 285 284 283 283 282 282 282 281 281 281 281 281 281 281 281 281 281 281 281 281 281 281 281 282 282 283
294 294 294 295 295 295 295 295 295 295 295 295 295 295 295 295 294 294 294 293 292 291 290 288 287 286 285 284 283 283 282 282 282 282 282 282 282 282 282 282 281 281 281 281 281 281 281 281 282 282 282 282
295 295 295 295 295 295 295 295 295 296 297 297 297 297 297 296 296 295 294 293 292 292 291 289 288 287 286 285 284 283 282 282 282 282 282 282 282 282 282 282 282 281 281 281 281 281 281 281 282 282 282 283
296 295 295 295 295 295 296 296 297 298 298 298 298 298 297 297 296 295 294 294 293 292 291 289 288 287 286 285 284 284 283 283 282 282 282 282 282 282 282 282 282 281 281 281 281 281 281 281 282 282 282 283
295 295 295 296 297 297 298 299 299 299 299 299 298 298 297 297 296 295 294 293 292 292 291 289 288 287 286 286 285 284 283 283 283 282 282 282 282 282 282 281 281 281 281 281 280 280 281 281 281 282 282 282
296 297 298 299 300 300 301 301 301 301 301 300 299 298 297 296 295 295 294 293 292 291 290 289 288 287 286 285 284 284 283 283 283 282 282 282 282 282 281 281 281 280 280 280 280 280 280 280 281 281 282 283
300 300 301 302 302 303 303 302 302 301 300 299 299 298 297 297 296 295 294 293 292 290 289 288 287 286 285 284 283 283 282 282 282 281 281 281 281 281 280 280 280 280 280 280 280 280 280 280 280 281 282 282
303 303 303 304 304 303 302 301 300 299 299 298 298 297 297 297 296 295 294 293 292 290 289 288 287 286 285 283 282 282 281 280 280 280 280 280 280 280 279 279 279 279 279 279 279 279 279 280 280 280 281 281
304 304 304 304 303 302 301 301 300 299 299 298 298 297 297 296 296 295 294 293 292 291 290 288 287 286 284 283 282 280 279 279 279 278 278 278 278 278 278 278 278 278 278 278 278 278 279 279 280 280 281 281